Overview Statistics Trail Chart Weather Telemetry Raw packets
 

This is the latest recevied weather packets stored in our database for station/object OK2ZAW-21. If no packets are shown the sender has not sent any weather packets the latest 10 day(s).

<< 1 2 3 4 >>
Time Temp. Humidity Pressure Rain* Wind** Luminosity Snow
1788715818 14.44° C 64% 1030.1 hPa - - 420 W/m² -
1788715507 14.44° C 62% 1030 hPa - - 420 W/m² -
1788715197 15.56° C 59% 1030 hPa - - 420 W/m² -
1788714886 16.11° C 56% 1030 hPa - - 420 W/m² -
1788714575 16.67° C 54% 1030 hPa - - 420 W/m² -
1788714264 17.22° C 54% 1029.9 hPa - - 420 W/m² -
1788713953 17.78° C 52% 1029.8 hPa - - 420 W/m² -
1788713642 18.33° C 51% 1029.9 hPa - - 420 W/m² -
1788713331 18.89° C 50% 1029.8 hPa - - 420 W/m² -
1788713020 18.89° C 48% 1029.9 hPa - - 420 W/m² -
1788712709 19.44° C 48% 1029.8 hPa - - 420 W/m² -
1788712398 19.44° C 48% 1029.8 hPa - - 420 W/m² -
1788712087 19.44° C 47% 1029.8 hPa - - 420 W/m² -
1788711776 19.44° C 46% 1029.7 hPa - - 420 W/m² -
1788711465 20° C 46% 1029.7 hPa - - 420 W/m² -
1788711153 19.44° C 46% 1029.7 hPa - - 420 W/m² -
1788710842 21.11° C 43% 1029.7 hPa - - 420 W/m² -
1788710531 20.56° C 44% 1029.7 hPa - - 420 W/m² -
1788710220 21.67° C 43% 1029.7 hPa - - 420 W/m² -
1788709908 21.67° C 43% 1029.7 hPa - - 420 W/m² -
1788709597 20° C 45% 1029.6 hPa - - 420 W/m² -
1788709286 21.11° C 43% 1029.6 hPa - - 421 W/m² -
1788708974 19.44° C 45% 1029.7 hPa - - 421 W/m² -
1788708663 18.89° C 47% 1029.8 hPa - - 421 W/m² -
1788708352 20° C 45% 1029.8 hPa - - 421 W/m² -

* Rain since midnight (hover to see other rain measurements)
** Current wind speed in m/s (hover to see current wind gust speed)